Track SAUDISAT 1C now! 10-day predictions SAUDISAT 1C is classified as:
1 27607U 02058C 21061.36539439 .00000062 00000-0 29317-4 0 9993 2 27607 64.5558 305.8029 0030700 65.6705 294.7598 14.75717526978916